Flag Weather past 2 weeks in Charleroi, Belgium

Now
41 °F

Clear.


Feels Like: 36 °F
Forecast: 38 / 51 °F
Wind: 7 mph from East

Location: Charleroi / Gosselies

Current Time: Nov 28, 2014 at 11:58:07 PM

Latest Report: Nov 28, 2014 at 11:20 PM


Visibility: 4 mi

Pressure: 29.80 "Hg

Humidity: 93%

Dew point: 39 °F

Location of CharleroiLocation

Historic Weather in Charleroi — Graph

°F

Charleroi temperature yesterday

Maximum temperature yesterday: 50 °F (at 10:50 AM)
Minimum temperature yesterday: 46 °F (at 7:20 AM)
Average temperature yesterday: 48 °F

Past Weeks' High & Low Weather Summary

 TemperatureHumidityPressure
High59 °F (Nov 23, 12:50 PM)100% (Nov 14, 4:50 PM)30.33 "Hg (Nov 14, 4:50 PM)
Low34 °F (Nov 21, 3:20 AM)59% (Nov 28, 1:20 PM)29.50 "Hg (Nov 16, 2:20 PM)
Average46 °F90%29.90 "Hg
* Reported Nov 13 10:50 PM — Nov 28 10:20 PM, Charleroi, Weather by CustomWeather, © 2014

Note: Actual official high and low records may vary slightly from our data, if they occured in-between our weather recording intervals... More about our weather records

Advertising

Charleroi weather history for previous 24 hours

 ConditionsComfort  
Time TempWeatherWind HumidityBarometerVisibility
10:20 PM
Nov 28
43 °FClear.10 mph93%29.77 "Hg4 mi
9:50 PM45 °FClear.10 mph87%29.77 "Hg4 mi
9:20 PM45 °FClear.10 mph87%29.77 "Hg4 mi
8:50 PM45 °FClear.10 mph93%29.77 "Hg4 mi
8:20 PM45 °FClear.12 mph93%29.74 "Hg4 mi
7:50 PM46 °FClear.10 mph87%29.74 "Hg4 mi
7:20 PM45 °FClear.10 mph93%29.74 "Hg4 mi
6:50 PM48 °FClear.8 mph87%29.74 "Hg4 mi
6:20 PM50 °FClear.9 mph82%29.71 "Hg10 mi
5:50 PM52 °FClear.8 mph72%29.71 "Hg10 mi
5:20 PM52 °FClear.10 mph72%29.71 "Hg10 mi
4:50 PM54 °FClear.10 mph67%29.71 "Hg10 mi
4:20 PM54 °FSunny.13 mph67%29.71 "Hg10 mi
3:50 PM55 °FPassing clouds.10 mph63%29.68 "HgN/A
3:20 PM55 °FPassing clouds.10 mph63%29.68 "HgN/A
2:50 PM55 °FLight rain. Scattered clouds.10 mph63%29.68 "HgN/A
2:20 PM55 °FPassing clouds.10 mph63%29.68 "HgN/A
1:50 PM57 °FSunny.12 mph59%29.68 "Hg10 mi
1:20 PM57 °FSunny.10 mph59%29.68 "Hg10 mi
12:50 PM55 °FSunny.10 mph63%29.68 "Hg10 mi
12:20 PM55 °FSunny.9 mph63%29.68 "Hg10 mi
11:50 AM54 °FPassing clouds.9 mph67%29.68 "HgN/A
11:20 AM54 °FSunny.12 mph67%29.68 "Hg10 mi
10:50 AM54 °FSunny.12 mph67%29.68 "Hg10 mi
10:20 AM54 °FPassing clouds.12 mph67%29.68 "HgN/A
9:50 AM52 °FSunny.12 mph72%29.68 "Hg10 mi
9:20 AM50 °FSunny.8 mph76%29.68 "Hg10 mi
8:50 AM50 °FPassing clouds.8 mph76%29.65 "HgN/A
8:20 AM48 °FSunny.9 mph82%29.65 "Hg10 mi
7:50 AM48 °FPassing clouds.9 mph82%29.65 "HgN/A
7:20 AM48 °FPassing clouds.10 mph82%29.65 "HgN/A
6:50 AM48 °FPassing clouds.12 mph82%29.65 "HgN/A
6:20 AM48 °FPassing clouds.12 mph82%29.65 "HgN/A
5:50 AM48 °FPassing clouds.14 mph87%29.65 "HgN/A
5:20 AM48 °FPassing clouds.14 mph87%29.65 "HgN/A
4:50 AM48 °FPassing clouds.12 mph87%29.65 "HgN/A
4:20 AM48 °FPassing clouds.8 mph87%29.65 "HgN/A
3:50 AM48 °FPassing clouds.10 mph87%29.65 "Hg6 mi
3:20 AM46 °FPassing clouds.8 mph93%29.65 "Hg5 mi
2:50 AM46 °FPassing clouds.7 mph93%29.65 "Hg5 mi
2:20 AM48 °FPassing clouds.7 mph94%29.65 "Hg6 mi
1:50 AM48 °FPassing clouds.7 mph94%29.65 "Hg6 mi
1:20 AM48 °FPassing clouds.7 mph94%29.65 "Hg5 mi
12:50 AM48 °FPassing clouds.7 mph94%29.68 "Hg6 mi
12:20 AM48 °FPassing clouds.9 mph94%29.68 "Hg6 mi
11:50 PM
Nov 27
48 °FPassing clouds.8 mph94%29.65 "HgN/A
11:20 PM48 °FPassing clouds.7 mph94%29.65 "HgN/A
Weather by CustomWeather, © 2014

See weather overviewHow to use our weather pages